Weather in Kargala

Russia / Orenburg Oblast     51°53′26″N   54°52′07″E
temp.,
°C
wind,
m/s
gust,
m/s
humid.,
%
clouds,
%
prec.,
mm/h
press.,
hPa
HPBL,
m
23 october, sat
sat2323:00+10sw817600 0.0 1012646
02:00+9sw715630 0.0 1013475
05:00+8sw6146795 0.0 1014389
08:00+7sw51270100 0.0 1014283
11:00+10sw61264100 0.0 1016403
14:00+13sw71161100 0.0 1016667
17:00+13sw6116399 0.0 1016642
20:00+11sw51274100 0.0 1017297
24 october, sun
sun2423:00+10sw3978100 0.0 1017181
02:00+9s3877100 0.0 1016174
05:00+10s51271100 0.0 1014431
08:00+10ssw71389100 0.0 1012529
11:00+10sw71287100 0.4 1012723
14:00+10sw51093100 2.1 1014592
17:00+11w5867100 2.8 10141010
20:00+8w3670100 0.0 1016105
25 october, mon
mon2523:00+7wnw2269100 0.0 101617
02:00+6nw1172100 0.0 101610
05:00+5n1174100 0.0 101510
08:00+5sw1173100 0.0 101510
11:00+7wsw2367100 0.0 1015283
14:00+8wnw3451100 0.0 10141297
17:00+8wnw355699 0.1 10141163
20:00+5wnw376776 0.1 1016168
26 october, tue
tue2623:00+3nw6108854 0.1 1018440
02:00+4nnw6983100 0.0 1020835
05:00+1n712775 0.1 1023602
08:00−1n51075100 0.0 1025433
11:00+1n465668 0.0 1027510
14:00+4nnw33374 0.0 1027791
17:00+4w343231 0.0 1027888
20:00+2wsw364399 0.0 1028120
27 october, wed
wed2723:00+2wsw494687 0.0 1028298
02:00+1sw4115188 0.0 1028291
05:000sw5125810 0.0 1028277
08:00−1sw512645 0.0 1027269
11:00+3wsw610515 0.0 1028444
14:00+7wsw79415 0.0 1027765
17:00+7wsw6104125 0.0 1026732
20:00+4sw5135052 0.0 1026335